EHI
0 0 0 0 0 0 0 0 0 0 0 0 0 0 1 1 2 4 6 7 10 17 27 33 32 27 24 26 30 34 38 41 40 36 36 39 40 36 32 31 27 20 16 16 14 12 12 11 9
0 0 0 0 0 0 0 0 0 0 0 1 1 1 2 1 1 3 5 7 9 15 23 30 32 28 23 25 29 33 38 42 41 39 38 40 40 37 34 32 27 20 16 14 12 10 10 10 9
0 0 0 0 0 0 0 0 1 1 1 2 3 3 2 1 1 2 5 7 9 13 19 27 31 28 23 24 28 33 37 41 42 43 43 41 39 36 34 30 25 21 17 14 10 8 8 8 9
0 0 0 0 0 0 0 1 2 2 2 3 4 4 3 2 1 3 5 8 9 12 18 25 29 27 23 24 28 31 34 38 41 43 44 41 37 33 30 26 23 20 18 14 10 8 7 7 7
0 0 0 0 0 0 0 1 2 3 3 3 4 5 5 5 4 5 6 8 9 12 17 23 27 25 23 25 28 28 28 32 37 40 40 38 34 29 25 22 19 17 15 13 10 7 6 6 7
0 0 0 0 0 0 0 0 1 3 3 3 4 6 7 8 8 7 7 8 8 10 14 19 21 20 19 21 24 24 24 26 30 33 34 33 30 26 23 19 15 12 10 10 9 8 7 6 6
0 0 0 0 0 0 0 0 1 2 3 3 4 5 9 11 11 9 8 8 7 7 9 11 12 13 13 14 17 18 18 20 23 25 26 26 25 24 21 17 13 10 9 7 7 7 7 5 4
0 0 0 0 0 0 0 0 0 2 3 3 4 6 10 14 13 11 9 8 7 6 5 6 6 6 8 10 11 11 12 13 16 17 19 18 18 18 17 15 12 10 8 7 5 6 5 4 3
0 0 0 0 0 0 0 0 1 2 3 4 5 7 12 16 15 12 10 9 8 7 5 5 5 4 5 7 8 8 8 9 11 12 13 11 10 11 12 13 13 10 8 6 5 4 4 4 4
0 0 0 0 0 0 0 0 1 2 4 5 8 11 15 18 17 14 10 8 8 8 7 6 5 4 4 5 7 8 9 9 10 9 10 10 10 11 12 15 16 13 9 7 6 4 4 5 6
0 0 0 0 0 0 0 0 1 2 4 6 10 15 19 20 18 14 10 7 6 7 7 6 5 4 4 5 7 9 10 12 12 11 11 13 16 17 17 19 20 17 13 11 9 6 5 6 6
0 0 0 0 0 1 1 2 3 3 4 7 11 17 20 20 17 15 12 10 8 8 8 7 5 5 5 6 7 8 9 11 12 12 13 15 19 21 21 22 22 19 17 16 13 8 5 5 4
0 0 0 0 1 2 3 4 5 4 4 7 12 17 18 17 17 17 15 12 12 10 9 8 6 6 7 7 7 6 7 8 8 10 12 13 16 18 19 19 19 17 15 15 14 9 6 6 5
0 0 0 0 1 2 3 5 5 4 5 8 13 17 17 16 18 19 17 14 12 10 8 7 7 7 7 8 7 5 4 5 5 7 9 10 12 14 14 13 14 13 11 11 12 11 9 7 6
0 0 0 0 0 1 2 3 4 4 5 8 11 14 15 14 16 19 18 15 13 12 10 8 7 8 9 9 7 5 5 5 5 6 7 7 8 10 11 10 10 10 10 10 11 11 10 7 4
0 0 0 0 0 0 1 2 3 4 5 7 8 11 12 11 12 15 15 15 16 17 15 11 9 10 11 11 9 7 8 7 6 6 6 5 5 7 9 10 9 7 8 10 11 11 10 6 4
0 0 0 0 0 0 1 2 3 4 5 6 6 8 9 9 9 10 10 11 14 17 18 16 14 14 15 14 12 10 10 10 8 5 4 4 5 5 7 8 8 8 7 8 10 11 10 8 6
0 0 0 0 0 0 0 1 3 5 5 5 4 5 8 10 9 9 8 9 12 16 19 19 19 19 20 18 16 12 11 10 8 5 4 5 5 4 5 6 8 9 9 9 10 10 9 9 9
0 0 0 0 0 0 0 1 3 4 4 4 4 4 8 11 12 11 10 9 12 16 19 20 20 21 21 20 18 15 11 9 7 5 5 5 4 4 4 5 7 8 9 10 9 9 9 9 9
0 0 0 0 0 0 0 1 3 5 4 4 5 5 7 10 12 12 12 11 12 15 18 19 18 18 18 18 16 14 11 8 6 6 6 5 4 3 3 4 6 7 8 8 7 7 8 8 8
0 0 0 0 0 0 0 1 3 5 5 5 5 4 5 8 10 11 13 14 13 13 14 16 17 18 17 16 14 12 11 8 7 6 6 6 5 4 3 4 5 6 6 6 5 5 6 8 9
0 0 0 0 0 0 0 0 2 4 6 6 6 4 5 6 8 10 13 14 14 13 13 14 17 18 18 16 14 12 12 10 8 7 7 7 6 4 3 3 4 4 4 4 4 4 5 7 9
0 0 0 0 0 0 0 0 1 2 4 5 6 5 5 7 9 10 12 13 14 14 15 17 18 18 17 15 14 14 13 11 9 7 7 7 7 5 4 3 3 3 3 3 4 3 4 6 6
0 0 0 0 0 0 0 0 0 1 1 3 5 6 6 8 9 10 11 12 14 15 17 19 20 17 13 12 14 15 13 11 10 8 7 6 5 5 4 3 3 3 3 4 4 3 3 4 5
0 0 0 0 0 0 0 0 0 0 0 1 2 4 6 7 9 10 10 11 13 15 17 19 20 16 11 9 12 14 12 10 8 8 7 5 4 4 4 4 3 3 3 3 2 1 2 4 6
0 0 0 0 0 0 0 0 0 0 0 1 1 2 4 6 9 10 10 10 13 16 17 19 19 17 13 11 12 12 10 6 5 6 6 5 4 3 3 3 3 3 3 2 1 0 1 4 6
0 0 0 0 0 0 0 0 0 0 0 1 2 2 3 5 8 9 9 11 14 17 18 19 19 17 15 14 13 11 8 5 4 5 6 5 4 3 2 3 3 3 3 2 1 0 1 2 3
0 0 0 0 0 0 0 0 0 0 0 1 2 3 3 5 7 9 9 12 16 19 18 18 17 16 14 14 12 9 8 7 6 6 5 4 3 3 3 3 3 3 3 3 2 1 0 1 1
0 0 0 0 0 0 0 1 1 1 1 2 3 2 2 3 6 8 10 13 17 18 17 16 15 13 11 10 10 8 7 7 6 6 5 5 5 4 4 4 4 4 4 4 3 1 0 0 0
0 0 0 0 0 0 0 1 2 2 2 3 3 2 1 2 5 8 10 12 16 17 15 14 13 10 9 9 9 8 6 5 6 6 6 6 6 6 5 5 5 5 4 4 3 1 0 0 0
Wind_Speed
10 9 6 5 7 3 5 6 4 4 4 4 3 2 4 7 7 6 6 5 5 7 10 11 9 8 8 8 9 9 10 10 11 11 11 11 11 10 10 9 9 9 8 8 8 7 7 7 7
8 7 7 7 5 3 6 4 4 5 4 3 3 2 3 5 6 5 5 5 5 8 9 9 10 8 8 8 9 9 9 10 10 11 11 11 10 10 9 9 8 8 8 8 8 7 6 6 6
7 7 7 5 2 4 6 4 4 4 3 1 2 3 4 5 4 4 5 5 6 7 8 10 9 8 8 8 8 9 9 9 10 10 10 10 10 10 9 9 8 7 7 7 7 6 6 6 6
6 7 6 5 2 5 4 4 2 3 3 2 2 4 5 5 3 4 6 6 7 7 8 10 8 8 8 8 8 9 9 9 9 9 10 9 9 9 9 8 8 7 7 6 6 6 6 6 6
7 6 6 2 4 4 2 2 0 1 2 2 1 3 5 5 5 6 7 7 7 7 7 10 8 7 7 7 8 8 8 8 8 8 8 8 8 8 8 8 8 7 7 7 7 6 6 6 6
6 6 5 1 5 3 3 1 2 0 2 3 1 3 6 5 5 5 6 6 6 7 7 9 9 8 7 7 8 7 7 7 7 7 7 8 8 8 8 8 7 7 7 7 7 7 7 6 6
7 5 2 1 2 3 3 2 1 1 1 2 1 2 6 6 5 4 5 6 6 6 6 6 7 8 8 7 7 7 6 6 6 7 7 7 7 8 8 8 7 7 7 7 7 7 7 7 7
6 5 2 1 1 3 3 1 2 2 2 4 1 1 4 6 5 6 6 6 6 5 5 4 4 5 5 7 8 7 6 6 6 6 7 8 8 9 9 9 8 8 7 7 7 7 7 7 8
7 6 1 3 2 3 2 0 1 1 3 4 3 4 6 9 8 7 6 6 5 4 3 3 3 3 3 3 5 7 7 7 7 7 7 8 8 8 8 7 7 8 8 8 7 7 8 8 10
6 4 4 5 4 3 2 1 1 3 3 5 5 7 8 9 8 7 6 5 5 4 3 2 2 2 2 2 3 3 4 4 5 4 6 6 5 4 5 6 8 9 9 9 8 8 10 11 7
4 4 4 3 4 2 1 1 0 2 1 3 5 7 8 8 7 6 5 4 4 3 2 2 2 1 1 1 1 1 1 2 3 4 5 4 4 4 4 3 6 8 9 8 7 9 7 7 5
3 2 3 3 2 1 1 1 2 1 2 4 5 8 9 7 6 5 4 4 3 3 2 1 1 1 1 0 0 1 1 1 2 3 5 3 3 3 3 3 4 5 4 4 5 4 6 7 7
4 1 1 2 1 1 2 2 2 4 4 5 6 7 8 7 6 4 4 3 3 2 1 2 1 1 1 1 1 0 1 1 1 2 3 4 3 3 3 3 3 4 4 4 5 5 6 7 7
0 1 1 0 2 3 3 3 2 4 4 5 6 7 6 6 6 5 4 3 2 1 1 1 1 1 1 1 0 0 1 1 2 2 2 3 3 2 3 3 3 4 4 4 5 5 5 6 5
3 4 4 3 2 3 2 1 3 5 5 5 5 5 6 5 5 4 3 2 2 2 2 1 1 1 0 1 1 1 1 1 2 1 1 2 3 3 3 3 4 4 4 5 5 5 5 5 6
8 8 5 3 1 2 5 0 5 5 4 4 4 4 4 4 4 3 3 2 2 1 1 0 1 0 1 1 2 2 2 2 2 2 1 2 3 4 4 4 4 4 4 4 4 5 5 5 5
8 7 4 2 1 1 4 1 5 4 3 3 3 3 3 3 3 3 2 2 1 1 0 0 1 1 1 1 2 2 2 2 2 2 2 2 3 4 5 4 3 5 4 4 5 4 5 5 5
5 6 4 3 1 2 3 2 4 3 2 3 3 2 2 2 2 2 1 1 1 1 0 0 1 1 2 1 1 2 2 2 3 3 2 3 4 5 5 4 4 5 4 4 4 5 5 5 5
6 6 5 1 1 3 3 2 3 3 2 2 3 2 2 2 2 2 1 1 1 0 0 1 2 1 2 2 2 2 3 3 3 3 3 4 4 5 5 4 4 5 4 5 5 5 6 5 4
7 7 5 2 1 3 3 3 3 3 2 2 1 1 1 1 2 1 0 1 1 1 1 2 2 2 2 2 3 3 4 3 3 3 3 4 4 5 5 5 4 4 4 5 5 5 5 5 5
7 7 6 4 3 6 6 6 6 5 3 2 1 1 1 1 1 0 0 1 1 1 2 2 2 2 2 3 3 2 3 3 3 3 3 4 5 5 5 5 5 5 5 4 5 6 7 5 5
6 3 5 6 8 5 7 6 5 6 4 3 1 1 0 0 1 1 1 2 2 2 2 2 2 2 3 3 3 4 4 4 4 4 3 4 5 5 5 5 6 6 5 5 6 5 5 6 5
4 2 5 8 9 7 7 8 3 5 4 3 2 1 1 1 1 1 2 2 3 3 3 2 2 2 2 3 4 5 5 4 4 4 4 5 4 5 5 5 5 6 6 5 5 5 6 5 6
3 4 5 8 9 8 5 7 2 2 1 1 2 1 1 1 1 2 2 2 2 3 3 3 2 2 2 3 4 4 5 5 5 5 4 4 4 4 5 5 5 6 6 6 6 6 7 6 6
6 7 6 7 7 4 2 5 1 3 1 1 1 1 1 1 2 2 2 2 3 3 3 3 3 3 3 4 4 4 5 6 6 6 5 5 4 4 4 4 5 5 6 6 6 6 6 7 7
6 9 7 7 6 4 3 3 3 4 2 0 0 1 1 2 2 3 3 3 3 4 4 4 4 4 4 4 4 4 5 5 4 5 5 5 4 4 4 5 5 6 6 6 5 6 6 6 7
7 7 6 9 9 7 3 2 5 4 3 1 0 1 2 3 3 4 4 4 4 4 4 4 4 4 4 4 4 4 5 5 5 5 5 4 4 4 5 5 5 5 5 6 6 5 5 5 7
6 4 5 7 7 7 5 3 1 3 1 1 0 2 3 3 4 4 4 4 4 4 5 4 4 5 4 4 4 4 5 5 5 5 5 5 5 5 5 5 5 5 5 5 5 5 5 5 6
5 5 6 7 6 8 7 2 5 3 1 1 1 2 3 4 4 4 4 4 4 4 4 4 4 4 4 4 4 4 4 4 4 4 5 5 5 5 5 5 5 5 5 5 5 5 6 6 5
5 5 6 6 5 6 8 1 6 3 1 1 2 2 3 4 5 4 5 5 4 4 4 4 4 4 4 4 4 4 4 4 4 4 5 5 5 4 4 5 5 5 5 5 5 6 5 5 5
Wind_Direction
179 188 209 229 235 202 81 78 72 89 76 52 44 28 24 19 9 49 74 102 112 134 136 147 151 158 158 157 154 152 157 158 156 156 156 157 157 158 159 159 163 165 164 161 159 158 161 164 166
183 190 220 239 256 106 91 85 84 64 69 86 85 71 58 57 44 74 95 105 132 136 140 143 139 155 157 157 155 155 159 161 160 159 160 160 161 162 163 164 166 169 170 167 167 167 169 171 174
190 222 251 249 313 41 78 85 73 82 102 122 95 51 37 48 62 74 90 133 138 135 135 125 142 152 158 159 158 158 161 162 162 162 163 165 167 167 168 170 170 171 175 176 177 177 181 183 183
212 221 235 248 75 52 42 69 74 120 117 89 95 94 79 51 46 80 113 134 133 133 133 127 144 150 157 160 162 163 163 164 164 166 169 170 171 172 173 175 175 175 180 186 190 191 196 198 194
238 249 238 204 88 76 61 49 190 145 106 84 76 93 88 67 73 98 121 128 128 124 122 127 140 149 154 158 161 164 168 168 170 171 174 176 177 179 180 181 183 185 190 196 199 202 208 206 201
238 244 250 79 86 89 73 66 220 218 88 84 92 105 87 86 95 108 122 130 125 124 122 126 141 149 155 162 164 169 173 175 177 177 178 183 185 186 186 189 191 194 199 204 207 209 212 211 206
271 271 306 27 78 97 58 28 310 299 66 55 23 104 105 99 99 117 126 126 120 123 123 133 146 155 164 164 170 175 181 182 185 186 188 188 190 191 191 193 198 202 207 213 217 218 220 219 217
284 270 236 81 47 61 65 50 10 324 43 65 37 58 106 120 129 131 126 119 119 123 125 131 142 151 170 168 167 178 184 190 192 195 197 196 197 200 200 203 200 206 214 220 223 223 225 222 221
259 256 320 24 6 45 64 41 66 66 102 99 81 65 94 129 140 138 131 128 122 117 121 126 136 154 178 173 160 184 189 192 201 199 197 209 213 207 203 206 193 212 220 224 227 229 228 226 217
253 277 23 14 350 355 16 360 115 166 141 122 111 103 118 136 146 145 139 136 133 132 133 132 144 157 175 165 158 194 207 192 215 210 207 217 220 229 230 177 202 213 218 221 224 230 230 232 221
264 309 4 358 354 338 343 39 98 214 146 117 134 134 136 144 148 145 138 133 132 134 128 118 127 158 173 158 170 190 220 202 218 219 222 227 226 222 229 216 205 214 217 223 212 224 234 237 240
253 311 330 342 359 318 335 75 70 54 44 67 108 132 141 146 146 140 134 128 125 130 123 119 134 145 169 119 204 207 210 218 229 218 235 228 227 230 227 233 232 228 224 227 230 232 240 245 240
226 265 8 359 336 84 106 94 79 71 76 100 115 128 136 139 132 120 118 119 118 110 121 128 146 124 144 166 261 214 251 240 225 240 233 240 237 242 241 246 247 243 231 221 230 232 235 240 238
246 255 257 343 107 135 126 101 103 86 97 112 122 128 132 130 126 120 116 112 116 105 61 76 93 105 137 167 224 270 262 233 250 246 242 247 250 248 245 239 245 247 239 236 235 232 231 237 240
187 211 196 148 153 150 180 111 97 107 116 119 125 128 130 127 125 122 120 121 115 104 73 63 131 139 180 227 248 274 275 269 274 271 267 266 262 252 249 250 245 250 246 235 236 228 230 233 233
211 225 226 138 187 175 250 142 102 107 120 117 118 122 129 126 124 112 111 114 104 101 98 312 304 140 241 270 261 266 286 293 286 278 255 257 265 259 255 251 251 247 247 240 236 237 231 232 238
216 247 257 168 138 232 249 192 108 114 125 114 115 123 129 127 119 101 97 92 86 96 115 274 295 270 281 283 269 268 271 279 281 271 268 264 265 260 257 254 256 250 246 244 242 230 235 233 237
254 258 251 249 112 243 234 173 128 119 119 114 103 110 121 116 105 95 89 93 88 75 4 308 310 334 302 279 268 275 280 275 274 278 276 268 262 260 259 249 251 255 248 241 240 238 233 238 235
268 263 258 241 111 253 226 181 146 133 142 117 104 99 105 104 92 83 61 12 63 62 321 315 319 321 306 304 295 287 279 284 282 275 273 270 270 264 262 261 247 252 247 247 241 236 223 226 232
243 249 245 204 156 256 226 200 153 154 153 111 114 115 93 76 80 75 37 19 357 342 312 294 295 301 292 301 290 286 289 279 277 279 268 264 267 266 255 257 249 245 244 239 243 240 238 225 218
245 259 261 240 208 211 220 211 181 163 152 138 140 117 84 55 28 28 326 322 327 328 308 309 308 295 286 287 279 280 266 262 260 268 264 266 271 266 268 257 255 249 245 236 238 233 231 229 219
260 264 255 228 234 231 239 261 171 179 184 178 188 193 188 29 355 357 333 334 332 328 323 318 303 288 281 273 280 284 281 281 285 280 277 273 269 266 260 255 251 251 249 243 237 225 236 233 226
284 261 235 236 250 259 230 264 165 175 211 205 211 229 278 327 341 351 332 336 339 337 336 334 323 297 284 277 273 273 278 282 280 278 274 273 264 262 258 253 251 249 249 244 245 234 241 236 238
204 217 217 231 242 248 244 264 240 152 270 266 210 224 275 301 317 314 330 347 343 339 340 341 334 315 297 287 284 280 287 288 287 280 275 268 262 258 257 255 254 251 248 240 236 233 230 239 241
221 248 242 232 233 251 172 254 343 80 59 338 304 269 277 281 297 307 320 329 331 329 330 326 322 310 299 293 289 286 287 283 276 276 270 269 268 263 261 264 257 254 248 243 237 232 236 235 237
229 258 278 287 288 287 193 250 98 107 110 103 308 307 296 291 307 309 311 316 321 318 318 316 315 308 303 298 292 286 282 280 281 277 280 273 274 273 272 263 258 259 255 246 235 236 232 230 233
236 245 278 279 277 276 246 167 151 151 161 158 55 348 336 321 314 310 314 321 317 312 310 307 306 304 301 301 299 290 288 288 288 282 277 275 274 271 265 264 258 257 256 250 238 236 237 234 235
271 267 249 264 281 282 266 238 169 144 154 143 345 348 347 334 328 325 323 324 324 322 315 308 304 305 306 307 301 297 291 288 289 287 293 292 284 280 274 268 265 259 255 249 240 242 231 235 236
219 228 259 271 285 287 290 4 67 78 55 336 348 347 337 335 337 337 332 331 325 320 311 314 312 309 309 308 306 303 295 293 292 291 291 292 289 280 273 270 266 260 255 247 236 240 235 234 236
250 258 256 271 279 271 286 13 93 87 60 352 342 347 343 339 337 342 345 339 333 329 326 325 319 312 307 307 308 302 302 303 299 300 296 293 289 280 275 275 270 262 258 251 240 238 240 240 240